Location: Fort Wayne
(41.1310°N, 85.1290°W)
Time: 23:04:18
(UTC-04:00)

Cosmos 1000 Rocket - Visible Passes

Search period start: 29 August 2016 00:00
Search period end: 08 September 2016 00:00
Orbit: 955 x 991 km, 82.9° (Epoch: 28 August)

Date Brightness Start Highest point End Pass type
(mag) Time Alt. Az. Time Alt. Az. Time Alt. Az.
29 Aug 7.5 22:16:07 10° WNW 22:18:09 12° WNW 22:20:11 10° W visible
30 Aug 5.7 20:52:26 10° NNW 20:58:28 48° W 21:04:27 10° SSW visible
31 Aug 6.8 21:17:43 10° NNW 21:22:52 27° W 21:27:59 10° SW visible
01 Sep 7.4 21:43:50 10° NW 21:47:06 15° W 21:50:22 10° WSW visible
03 Sep 6.5 20:46:14 10° NNW 20:51:45 32° W 20:57:13 10° SSW visible
04 Sep 7.3 21:11:58 10° NW 21:16:02 18° W 21:20:04 10° WSW visible
07 Sep 7.3 20:40:17 10° NW 20:44:57 22° W 20:49:35 10° SW visible
